When you browse on this site, cookies collect data to enhance your experience and personalize the content and advertising you see.
Visit our Privacy Policy to learn more. By continuing to use the site, you agree to this use of cookies and data.

Hourly Weather Andreevka

Today, 6 July, Monday

Time Temperature Precipitation Wind Pressure Humidity
00:00 +26°C° 0 mm 1 mps 753 mmHg 60%
01:00 +25°C° 0 mm 1 mps 753 mmHg 61%
02:00 +24°C° 0 mm 1 mps 753 mmHg 62%
03:00 +22°C° 0 mm 0 mps 753 mmHg 62%
04:00 +25°C° 0 mm 1 mps 753 mmHg 62%
05:00 +26°C° 0 mm 1 mps 753 mmHg 61%
06:00 +27°C° 0 mm 1 mps 753 mmHg 61%
07:00 +28°C° 0 mm 1 mps 753 mmHg 58%
08:00 +29°C° 0 mm 1 mps 753 mmHg 55%
09:00 +31°C° 0 mm 1 mps 753 mmHg 49%
10:00 +32°C° 0 mm 1 mps 753 mmHg 45%
11:00 +34°C° 0 mm 1 mps 753 mmHg 40%
12:00 +35°C° 0 mm 1 mps 753 mmHg 36%
13:00 +35°C° 0 mm 1 mps 753 mmHg 34%
14:00 +36°C° 0 mm 2 mps 752 mmHg 32%
15:00 +37°C° 0 mm 2 mps 752 mmHg 30%
16:00 +36°C° 0 mm 2 mps 752 mmHg 35%
17:00 +35°C° 0 mm 2 mps 752 mmHg 39%
18:00 +34°C° 0 mm 2 mps 752 mmHg 43%
19:00 +31°C° 0 mm 2 mps 752 mmHg 44%
20:00 +29°C° 0 mm 2 mps 752 mmHg 46%
21:00 +27°C° 0 mm 2 mps 753 mmHg 48%
22:00 +27°C° 0 mm 2 mps 753 mmHg 47%
23:00 +26°C° 0 mm 2 mps 753 mmHg 47%

Tomorrow, 7 July, Tuesday

Time Temperature Precipitation Wind Pressure Humidity
00:00 +25°C° 0 mm 1 mps 753 mmHg 46%
01:00 +25°C° 0 mm 1 mps 753 mmHg 47%
02:00 +24°C° 0 mm 1 mps 753 mmHg 48%
03:00 +22°C° 0 mm 0 mps 753 mmHg 49%
04:00 +25°C° 0 mm 1 mps 753 mmHg 51%
05:00 +26°C° 0 mm 1 mps 753 mmHg 53%
06:00 +27°C° 0 mm 1 mps 753 mmHg 55%
07:00 +28°C° 0 mm 2 mps 753 mmHg 51%
08:00 +30°C° 0 mm 2 mps 753 mmHg 48%
09:00 +32°C° 0 mm 2 mps 753 mmHg 44%
10:00 +34°C° 0 mm 2 mps 753 mmHg 40%
11:00 +36°C° 0 mm 2 mps 753 mmHg 37%
12:00 +37°C° 0 mm 3 mps 753 mmHg 33%
13:00 +38°C° 0 mm 2 mps 753 mmHg 31%
14:00 +38°C° 0 mm 2 mps 753 mmHg 28%
15:00 +39°C° 0 mm 2 mps 753 mmHg 26%
16:00 +37°C° 0 mm 2 mps 753 mmHg 33%
17:00 +36°C° 0 mm 3 mps 753 mmHg 39%
18:00 +34°C° 0 mm 3 mps 753 mmHg 46%
19:00 +31°C° 0 mm 3 mps 753 mmHg 46%
20:00 +30°C° 0 mm 2 mps 753 mmHg 45%
21:00 +28°C° 0 mm 2 mps 753 mmHg 45%
22:00 +27°C° 0 mm 2 mps 753 mmHg 46%
23:00 +26°C° 0 mm 1 mps 753 mmHg 47%

Day after tomorrow, 8 July, Wednesday

Time Temperature Precipitation Wind Pressure Humidity
00:00 +26°C° 0 mm 1 mps 753 mmHg 49%
01:00 +25°C° 0 mm 1 mps 753 mmHg 49%
02:00 +25°C° 0 mm 1 mps 753 mmHg 50%
03:00 +25°C° 0 mm 1 mps 753 mmHg 51%
04:00 +25°C° 0 mm 1 mps 754 mmHg 52%
05:00 +26°C° 0 mm 1 mps 754 mmHg 54%
06:00 +27°C° 0 mm 1 mps 754 mmHg 56%
07:00 +28°C° 0 mm 1 mps 754 mmHg 51%
08:00 +30°C° 0 mm 1 mps 754 mmHg 47%
09:00 +32°C° 0 mm 2 mps 754 mmHg 43%
10:00 +34°C° 0 mm 2 mps 754 mmHg 39%
11:00 +35°C° 0 mm 2 mps 754 mmHg 36%
12:00 +37°C° 0 mm 2 mps 754 mmHg 33%
13:00 +37°C° 0 mm 2 mps 754 mmHg 32%
14:00 +37°C° 0 mm 2 mps 754 mmHg 32%
15:00 +38°C° 0 mm 2 mps 753 mmHg 32%
16:00 +37°C° 0 mm 2 mps 753 mmHg 37%
17:00 +36°C° 0 mm 2 mps 753 mmHg 42%
18:00 +35°C° 0 mm 3 mps 753 mmHg 46%
19:00 +33°C° 0 mm 3 mps 753 mmHg 50%
20:00 +30°C° 0 mm 3 mps 753 mmHg 54%
21:00 +28°C° 0 mm 3 mps 754 mmHg 58%
22:00 +27°C° 0.1 mm 3 mps 754 mmHg 61%
23:00 +26°C° 0.1 mm 3 mps 754 mmHg 63%

9 July, Thursday

Time Temperature Precipitation Wind Pressure Humidity
00:00 +25°C° 0.1 mm 2 mps 754 mmHg 66%
01:00 +25°C° 0 mm 2 mps 754 mmHg 68%
02:00 +24°C° 0 mm 3 mps 754 mmHg 70%
03:00 +24°C° 0 mm 3 mps 754 mmHg 72%
04:00 +25°C° 0 mm 3 mps 754 mmHg 71%
05:00 +25°C° 0 mm 3 mps 754 mmHg 70%
06:00 +26°C° 0 mm 3 mps 754 mmHg 68%
07:00 +28°C° 0 mm 3 mps 754 mmHg 62%
08:00 +29°C° 0 mm 4 mps 754 mmHg 56%
09:00 +32°C° 0 mm 4 mps 754 mmHg 50%
10:00 +33°C° 0 mm 4 mps 754 mmHg 46%
11:00 +34°C° 0 mm 5 mps 753 mmHg 42%
12:00 +35°C° 0 mm 5 mps 753 mmHg 38%
13:00 +35°C° 0 mm 5 mps 753 mmHg 39%
14:00 +35°C° 0 mm 5 mps 752 mmHg 40%
15:00 +35°C° 0 mm 4 mps 752 mmHg 40%
16:00 +34°C° 0 mm 4 mps 751 mmHg 43%
17:00 +32°C° 0 mm 4 mps 751 mmHg 46%
18:00 +30°C° 0 mm 4 mps 751 mmHg 49%
19:00 +30°C° 0 mm 4 mps 751 mmHg 49%
20:00 +29°C° 0 mm 4 mps 750 mmHg 49%
21:00 +29°C° 0 mm 4 mps 750 mmHg 50%
22:00 +28°C° 0 mm 4 mps 750 mmHg 51%
23:00 +27°C° 0 mm 4 mps 750 mmHg 53%

10 July, Friday

Time Temperature Precipitation Wind Pressure Humidity
00:00 +27°C° 0 mm 4 mps 750 mmHg 54%
01:00 +26°C° 0 mm 3 mps 750 mmHg 56%
02:00 +26°C° 0 mm 3 mps 751 mmHg 58%
03:00 +26°C° 0 mm 2 mps 751 mmHg 59%
04:00 +26°C° 0 mm 2 mps 751 mmHg 62%
05:00 +26°C° 0 mm 2 mps 751 mmHg 64%
06:00 +25°C° 0 mm 2 mps 751 mmHg 66%
07:00 +26°C° 0.2 mm 2 mps 751 mmHg 67%
08:00 +26°C° 0.2 mm 2 mps 751 mmHg 68%
09:00 +26°C° 0.2 mm 2 mps 751 mmHg 69%
10:00 +27°C° 0.1 mm 2 mps 751 mmHg 66%
11:00 +28°C° 0.1 mm 3 mps 752 mmHg 62%
12:00 +29°C° 0.1 mm 3 mps 752 mmHg 58%
13:00 +29°C° 0.2 mm 4 mps 752 mmHg 59%
14:00 +29°C° 0.2 mm 5 mps 752 mmHg 59%
15:00 +29°C° 0.2 mm 6 mps 753 mmHg 59%
16:00 +28°C° 0 mm 6 mps 753 mmHg 62%
17:00 +26°C° 0 mm 6 mps 754 mmHg 64%
18:00 +24°C° 0 mm 6 mps 754 mmHg 67%
19:00 +23°C° 0 mm 5 mps 755 mmHg 69%
20:00 +21°C° 0 mm 5 mps 755 mmHg 72%
21:00 +20°C° 0 mm 4 mps 756 mmHg 75%
22:00 +19°C° 0 mm 4 mps 756 mmHg 76%
23:00 +18°C° 0 mm 4 mps 757 mmHg 77%

11 July, Saturday

Time Temperature Precipitation Wind Pressure Humidity
00:00 +17°C° 0 mm 4 mps 757 mmHg 78%
01:00 +17°C° 0 mm 3 mps 757 mmHg 79%
02:00 +16°C° 0 mm 3 mps 758 mmHg 79%
03:00 +15°C° 0 mm 2 mps 758 mmHg 80%
04:00 +16°C° 0 mm 2 mps 758 mmHg 77%
05:00 +16°C° 0 mm 2 mps 759 mmHg 73%
06:00 +17°C° 0 mm 2 mps 759 mmHg 70%
07:00 +19°C° 0 mm 2 mps 759 mmHg 65%
08:00 +20°C° 0 mm 2 mps 759 mmHg 60%
09:00 +23°C° 0 mm 2 mps 759 mmHg 56%
10:00 +24°C° 0 mm 3 mps 759 mmHg 52%
11:00 +25°C° 0 mm 3 mps 759 mmHg 49%
12:00 +26°C° 0 mm 3 mps 759 mmHg 46%
13:00 +26°C° 0 mm 3 mps 759 mmHg 44%
14:00 +27°C° 0 mm 3 mps 759 mmHg 42%
15:00 +27°C° 0 mm 3 mps 759 mmHg 41%
16:00 +26°C° 0 mm 3 mps 759 mmHg 44%
17:00 +26°C° 0 mm 2 mps 759 mmHg 48%
18:00 +25°C° 0 mm 2 mps 759 mmHg 52%
19:00 +24°C° 0 mm 2 mps 759 mmHg 55%
20:00 +22°C° 0 mm 1 mps 759 mmHg 58%
21:00 +20°C° 0 mm 1 mps 759 mmHg 61%
22:00 +19°C° 0 mm 1 mps 759 mmHg 62%
23:00 +19°C° 0 mm 1 mps 759 mmHg 64%
Show more